Weather History for Sarasota, FL

Change the Weather History Date:

Wednesday, August 27, 2014

  Actual Average Record
Temperature  
Mean Temperature 85 °F 82 °F  
Max Temperature 95 °F 90 °F 97 °F (1923)
Min Temperature 74 °F 75 °F 65 °F (1930)
Degree Days  
Heating Degree Days 0 0  
Month to date heating degree days 0 0  
Since 1 June heating degree days 0 0  
Since 1 July heating degree days 0 0  
Cooling Degree Days 20 17  
Month to date cooling degree days 546 459  
Year to date cooling degree days 2465 2221  
Since 1 June cooling degree days 1653 1470  
Growing Degree Days 33 (Base 50)    
Moisture  
Dew Point 70 °F    
Average Humidity 67    
Maximum Humidity 93    
Minimum Humidity 39    
Precipitation  
Precipitation 0.00 in 0.29 in 3.69 in (2002)
Month to date precipitation 2.23 7.98  
Year to date precipitation 29.74 37.17  
Sea Level Pressure  
Sea Level Pressure 29.94 in    
Wind  
Wind Speed 7 mph (ENE)    
Max Wind Speed 16 mph    
Max Gust Speed 20 mph    
Visibility 10 miles    
Events      
T = Trace of Precipitation, MM = Missing Value Source: NWS Daily Summary

Daily Weather History Graph

Daily Weather History Graph

Search for Another Location

Airport:

Trip Planner

Search our weather history database for the weather conditions in past years. The results will help you decide how hot, cold, wet, or windy it might be!

Date:

Astronomy

Aug. 27, 2014 Rise Set
Actual Time 7:06 AM EDT 7:56 PM EDT
Civil Twilight 6:43 AM EDT 8:19 PM EDT
Nautical Twilight 6:14 AM EDT 8:48 PM EDT
Astronomical Twilight 5:46 AM EDT 9:16 PM EDT
Moon 8:48 AM EDT (8/27) 9:03 PM EDT (8/27)
Length of Visible Light 13h 36m
Length of Day
12h 49m
Waxing Crescent, 4% of the Moon is Illuminated
Aug 27
Waxing Crescent
Sep 2
First Quarter
Sep 8
Full
Sep 15
Last Quarter
Sep 24
New

Hourly Weather History & Observations

Time (EDT) Temp. Heat Index Dew Point Humidity Pressure Visibility Wind Dir Wind Speed Gust Speed Precip Events Conditions
12:53 AM 77.0 °F - 69.1 °F 76% 29.94 in 10.0 mi East 6.9 mph - N/A   Clear
1:53 AM 75.9 °F - 69.1 °F 79% 29.93 in 10.0 mi ENE 4.6 mph - N/A   Clear
2:53 AM 75.9 °F - 70.0 °F 82% 29.92 in 10.0 mi NE 5.8 mph - N/A   Clear
3:53 AM 75.0 °F - 71.1 °F 87% 29.92 in 10.0 mi ENE 5.8 mph - N/A   Clear
4:53 AM 75.0 °F - 71.1 °F 87% 29.92 in 10.0 mi ENE 4.6 mph - N/A   Clear
5:53 AM 73.9 °F - 71.1 °F 91% 29.92 in 10.0 mi ENE 5.8 mph - N/A   Clear
6:53 AM 75.0 °F - 72.0 °F 90% 29.94 in 10.0 mi NE 6.9 mph - N/A   Clear
7:53 AM 75.9 °F - 72.0 °F 87% 29.95 in 10.0 mi NE 5.8 mph - N/A   Clear
8:53 AM 79.0 °F - 73.0 °F 82% 29.96 in 10.0 mi ENE 9.2 mph - N/A   Clear
9:53 AM 82.9 °F 88.0 °F 72.0 °F 69% 29.97 in 10.0 mi East 10.4 mph - N/A   Clear
11:53 AM 88.0 °F 91.4 °F 68.0 °F 51% 29.97 in 10.0 mi Variable 4.6 mph - N/A   Partly Cloudy
12:53 PM 90.0 °F 92.8 °F 66.9 °F 46% 29.96 in 10.0 mi East 8.1 mph - N/A   Scattered Clouds
1:53 PM 91.0 °F 93.8 °F 66.0 °F 44% 29.94 in 10.0 mi North - - N/A   Partly Cloudy
2:53 PM 93.0 °F 95.0 °F 64.9 °F 39% 29.92 in 10.0 mi East 8.1 mph - N/A   Partly Cloudy
3:53 PM 93.0 °F 94.6 °F 64.0 °F 38% 29.91 in 10.0 mi East 6.9 mph - N/A   Scattered Clouds
4:53 PM 93.0 °F 95.0 °F 64.9 °F 39% 29.91 in 10.0 mi East 5.8 mph - N/A   Scattered Clouds
5:53 PM 93.0 °F 95.0 °F 64.9 °F 39% 29.90 in 10.0 mi NE 5.8 mph - N/A   Scattered Clouds
6:53 PM 90.0 °F 96.4 °F 71.1 °F 54% 29.91 in 10.0 mi NNE 4.6 mph - N/A   Mostly Cloudy
7:53 PM 86.0 °F 93.8 °F 73.9 °F 67% 29.92 in 10.0 mi NNW 9.2 mph - N/A   Overcast
8:53 PM 84.9 °F 92.1 °F 73.9 °F 69% 29.94 in 10.0 mi NNW 5.8 mph - N/A   Overcast
9:53 PM 84.0 °F 91.2 °F 73.9 °F 72% 29.96 in 10.0 mi NE 5.8 mph - N/A   Scattered Clouds
10:53 PM 82.9 °F 88.0 °F 72.0 °F 69% 29.97 in 10.0 mi East 9.2 mph - N/A   Partly Cloudy
11:53 PM 81.0 °F 85.8 °F 73.0 °F 77% 29.98 in 10.0 mi ESE 15.0 mph - N/A   Clear